Regional Weather Roundup
Issued by NWS

Home | Current Version | Previous Version | Text Only | Print | Product List | Glossary Off
Versions: 1 2 3 4 5 6 7 8 9 10 11 12 13 14 15 16 17 18 19 20 21 22 23 24 25 26 27 28 29 30 31 32 33 34 35 36 37 38 39 40 41 42 43 44 45 46 47 48 49 50

000
ASUS43 KOAX 261010
RWRNE

WEATHER ROUNDUP FOR NEBRASKA
NATIONAL WEATHER SERVICE OMAHA NE
400 AM CST WED NOV 26 2014

NOTES: SATELLITE DATA IS BEING USED TO AUGMENT CLOUD COVER ABOVE
       12000 FEET.
       "FAIR" INDICATES FEW OR NO CLOUDS BELOW 12,000 FEET WITH NO
       SIGNIFICANT WEATHER AND/OR OBSTRUCTIONS TO VISIBILITY.

  * THESE STATIONS DO NOT REPORT WEATHER SUCH AS RAIN...SNOW OR FOG.

NEZ001>004-019>022-054>056-261100-
NEBRASKA PANHANDLE

CITY           SKY/WX    TMP DP  RH WIND       PRES   REMARKS
SCOTTSBLUFF    CLOUDY    31  25  78 NW12      30.15R WCI  22
ALLIANCE       CLOUDY    30  20  66 NW17G26   30.09R WCI  18
CHADRON        CLOUDY    35  22  58 NE10      30.16R WCI  27
KIMBALL        CLOUDY    28  24  85 NW15G22   30.10R WCI  16
SIDNEY         CLOUDY    29  24  82 N24       30.10R WCI  15
$$

NEZ057>060-069>072-079>082-261100-
SOUTHWEST NEBRASKA

CITY           SKY/WX    TMP DP  RH WIND       PRES   REMARKS
NORTH PLATTE   CLOUDY    34  23  64 NW20G28   30.05R WCI  23
IMPERIAL       CLOUDY    35  24  64 NW17      30.08R WCI  25
LEXINGTON      CLOUDY    37  23  57 NW23      30.01R WCI  25
MCCOOK         CLOUDY    37  29  72 W13       30.06R WCI  29
OGALLALA       CLOUDY    36  26  65 N22G31    30.07S WCI  25
$$

NEZ005>010-023>029-035>040-094-261100-
NORTH CENTRAL NEBRASKA

CITY           SKY/WX    TMP DP  RH WIND       PRES   REMARKS
VALENTINE      CLOUDY    27  20  75 NW30G43   30.06R WCI  11
AINSWORTH      CLOUDY    28  22  77 NW30G36   30.03R WCI  13
BROKEN BOW     CLOUDY    37  22  54 NW28G37   29.98R WCI  25
O`NEILL        CLOUDY    34  28  80 NW24G38   29.95R WCI  21
ORD            FLURRIES  35  25  66 NW25G35   29.96R WCI  23
THEDFORD       CLOUDY    32  24  72 NW29G41   30.04R WCI  18
$$

NEZ041-046>049-061>064-073>077-083>087-261100-
SOUTH CENTRAL NEBRASKA

CITY           SKY/WX    TMP DP  RH WIND       PRES   REMARKS
GRAND ISLAND   PTCLDY    35  26  69 NW18      29.95R WCI  24
AURORA         PTCLDY    34  27  75 NW14      29.93S WCI  25
HASTINGS       PTCLDY    36  24  62 NW18      29.96R WCI  26
HEBRON         CLEAR     37  27  67 NW10      29.95S WCI  29
HOLDREGE       CLOUDY    37  27  69 NW14      29.99R WCI  28
KEARNEY *      CLOUDY    37  21  52 W22G29    29.99R WCI  27
YORK           PTCLDY    34  28  80 NW17      29.91S WCI  23
$$

NEZ011>018-030>034-042>045-261100-
NORTHEAST NEBRASKA

CITY           SKY/WX    TMP DP  RH WIND       PRES   REMARKS
NORFOLK        CLOUDY    38  32  79 NW17      29.87R WCI  28
ALBION         CLOUDY    37  27  68 NW23G31   29.91R WCI  25
BLAIR          CLOUDY    38  34  87 W9        29.82F WCI  31
COLUMBUS *     CLOUDY    37  27  65 NW15G22   29.90R WCI  28
FREMONT        CLOUDY    37  34  91 W14       29.86R WCI  28
TEKAMAH        CLOUDY    38  34  85 NW14      29.83S WCI  30
WAYNE          CLOUDY    37  33  87 NW16G24   29.86R WCI  27
$$

NEZ050>053-065>068-078-088>093-261100-
SOUTHEAST NEBRASKA

CITY           SKY/WX    TMP DP  RH WIND       PRES   REMARKS
LINCOLN        MOCLDY    37  30  75 W13       29.90S WCI  29
OMAHA EPPLEY   CLOUDY    39  35  86 NW9       29.85S WCI  33
BEATRICE       CLEAR     34  30  85 W13       29.91S WCI  25
FALLS CITY     CLOUDY    40  34  79 W13       29.88S WCI  32
NEBRASKA CITY  CLOUDY    38  32  79 W15       29.86F WCI  30
PLATTSMOUTH    CLOUDY    38  33  84 W14       29.84F WCI  29
$$

NEZ044-045-051>053-067-261100-
OMAHA AREA

CITY           SKY/WX    TMP DP  RH WIND       PRES   REMARKS
OMAHA EPPLEY   CLOUDY    39  35  86 NW9       29.85S WCI  33
BLAIR          CLOUDY    38  34  87 W9        29.82F WCI  31
FREMONT        CLOUDY    37  34  91 W14       29.86R WCI  28
MILLARD        CLOUDY    38  34  84 NW12      29.84S WCI  31
OFFUTT AFB     CLOUDY    38  35  88 W10       29.84S WCI  31
PLATTSMOUTH    CLOUDY    38  33  84 W14       29.84F WCI  29
WAHOO          CLOUDY    37  31  79 NW14G21   29.86S WCI  28
$$



USA.gov is the U.S. government's official web portal to all federal, state and local government web resources and services.